Preview of NWS' New Version of Forecast
This preview is not operational and should not be used for support decisions.

Regional Weather Roundup (RWR)

Issued by National Weather Service (NWS)

                            
000
ASUS45 KABQ 220101
RWRNM 
NEW MEXICO REGIONAL WEATHER ROUNDUP
NATIONAL WEATHER SERVICE ALBUQUERQUE NM
700 PM MDT SUN APR 21 2019

NOTE: "FAIR" MEANS FEW OR NO CLOUDS BELOW 12,000 FEET AGL WITH NO
       SIGNIFICANT WEATHER OR OBSTRUCTIONS TO VISION.

      THIS PRODUCT IS RELEASED AS TWO VERSIONS.  ONE VERSION NEAR
      THE TOP OF THE HOUR CONTAINING PRELIMINARY DATA FROM ALBUQUERQUE
      AND OTHER STATIONS.  A FINAL VERSION WITH ADDITIONAL DATA IS 
      ISSUED ABOUT 10 MINUTES AFTER THE HOUR.
 
NMZ501-503-504-510>518-220200-
NORTHWEST PLATEAU/NORTHCENTRAL MOUNTAINS
  
CITY           SKY/WX    TMP DP  RH WIND       PRES   REMARKS
FARMINGTON     FAIR      69  17  13 W12       29.87S                  
LOS ALAMOS       N/A     63  18  17 SE6       30.01S                  
SANTA FE       FAIR      65  20  17 N5        29.95S                  
TAOS           FAIR      60  18  19 W14       30.03R                  
ANGEL FIRE       N/A     55  18  24 W15G26    30.08R                  

$$
NMZ402-403-502-505>509-220200-
WESTCENTRAL MOUNTAINS/SOUTHWEST MOUNTAINS
  
CITY           SKY/WX    TMP DP  RH WIND       PRES   REMARKS
GALLUP         FAIR      66  16  14 SW20G30   29.97R                  
GRANTS         FAIR      66  15  14 W13G24    30.00R                  
SILVER CITY    FAIR      74  19  13 W15G28    29.97S                  

$$
NMZ407-409-411-412-220200-
SOUTHERN DESERTS
  
CITY           SKY/WX    TMP DP  RH WIND       PRES   REMARKS
DEMING         FAIR      80  21  11 W13       29.90S                  
LAS CRUCES     FAIR      81  22  11 W14       29.92S                  
HOLLOMAN AFB   FAIR      81  22  11 SW20      29.90S                  
ALAMOGORDO     FAIR      81  19  10 SW12G20   29.91S                  
T OR C         FAIR      80  15   8 W10       29.89R                  

$$
NMZ519>523-220200-
CENTRAL VALLEYS/CENTRAL HIGHLANDS
  
CITY           SKY/WX    TMP DP  RH WIND       PRES   REMARKS
ALBUQUERQUE    FAIR      72  22  15 E6        29.89F                  
DOUBLE EAGLE   MOCLDY    72  25  17 S7        29.92S                  
MORIARTY ARPT  FAIR      71  20  14 W9        29.96S                  
CLINES CORNERS FAIR      65  18  16 NW13      30.01R                  
BELEN          FAIR      75  22  14 SW6       29.88R                  
SOCORRO        FAIR      79  16   9 W14G20    29.85S                  

$$
NMZ524>526-539-540-220200-
SOUTHCENTRAL MOUNTAINS
  
CITY           SKY/WX    TMP DP  RH WIND       PRES   REMARKS
RUIDOSO        FAIR      66  18  15 SW18      30.05R                  

$$
NMZ527>531-220200-
NORTHEAST HIGHLANDS/NORTHEAST PLAINS
  
CITY           SKY/WX    TMP DP  RH WIND       PRES   REMARKS
LAS VEGAS      FAIR      64  21  19 SW14      29.99R                  
RATON          FAIR      68  15  13 W12       29.91R                  
CLAYTON        FAIR      72  24  16 SW10      29.84R                  

$$
NMZ532>537-220200-
EASTCENTRAL PLAINS
  
CITY           SKY/WX    TMP DP  RH WIND       PRES   REMARKS
SANTA ROSA     FAIR      76  21  13 W12       29.87S                  
TUCUMCARI      FAIR      78  26  14 W10       29.81R                  
CANNON AFB     FAIR      78  23  13 SW12      29.86S                  
CLOVIS AIRPORT FAIR      76  27  16 SW10      29.86R                  

$$
NMZ028-029-538-220200-
SOUTHEAST PLAINS
  
CITY           SKY/WX    TMP DP  RH WIND       PRES   REMARKS
ROSWELL        FAIR      85  19   9 W17       29.81R                  
ARTESIA        FAIR      84  25  11 SW17G26   29.84R                  
CARLSBAD       FAIR      84  27  12 SW17      29.84R                  
HOBBS          FAIR      82  21  10 SW13G21   29.87R                  


$$